Regional Weather Roundup
Issued by NWS Bismarck, ND

Home | Current Version | Previous Version | Text Only | Print | Product List | Glossary On
Versions: 1 2 3 4 5 6 7 8 9 10 11 12 13 14 15 16 17 18 19 20 21 22 23 24 25 26 27 28 29 30 31 32 33 34 35 36 37 38 39 40 41 42 43 44 45 46 47 48 49 50
000
ASUS43 KBIS 231610
RWRBIS

NWR BROADCAST TEXT
NATIONAL WEATHER SERVICE BISMARCK ND
1000 AM CST SUN NOV 23 2014

NOTE: "FAIR" INDICATES FEW OR NO CLOUDS BELOW 12,000 FEET WITH NO
SIGNIFICANT WEATHER AND/OR OBSTRUCTIONS TO VISIBILITY.


CITY           SKY/WX    TMP DP  RH WIND       PRES   REMARKS
WILLISTON      LGT SNOW  19  13  77 NW20G26   29.66R WCI   3
MINOT          FLURRIES  22  15  75 W29G38    29.44R WCI   4
MINOT AFB      MIX PCPN  23  19  87 NW30      29.42S WCI   5
BISMARCK       PTSUNNY   33  18  53 W28G37    29.53R WCI  20
DICKINSON      MIX PCPN  25  18  74 NW29G45   29.57R WCI   8
GARRISON         N/A     23  17  78 W30G41    29.48S WCI   5
HETTINGER ARPT CLOUDY    32  24  72 NW33G45   29.59R WCI  17
JAMESTOWN      CLOUDY    39  32  76 W18G28    29.42S
BEACH          LGT SNOW  23  23 100 NW30G38   29.67R VSB 3/4 WCI   5
CARRINGTON     CLOUDY    32  25  74 W24G32    29.45R WCI  19
CROSBY         LGT SNOW  18  14  86 NW24G32   29.62R WCI   0
HARVEY         CLOUDY    28  19  69 W20G26    29.46R WCI  15
HAZEN          CLOUDY    25  16  68 NW24G37   29.54R WCI   9
LINTON         PTSUNNY   34  27  75 NW22G29   29.52R
MANDAN         FAIR      30  19  64 NW21G40   29.51S WCI  17
OAKES            N/A     37  36  93 W10       29.47S
RUGBY          CLOUDY    27  19  74 W20G25    29.41S WCI  13
STANLEY        FLURRIES  18  16  93 NW23G40   29.52R WCI   0
TIOGA          LGT SNOW  16  16 100 NW30G41   29.59R WCI  -4
$$

CITY           SKY/WX    TMP DP  RH WIND       PRES   REMARKS
GRAND FORKS    CLOUDY    43  34  70 W13       29.39R
GRAND FORKS AF CLOUDY    43  36  75 W9        29.40R
DEVILS LAKE    CLOUDY    34  21  60 W22       29.38R
FARGO          LGT RAIN  39  35  86 SW6       29.43S
CANDO          CLOUDY    32  23  69 W16G24    29.40R
CAVALIER       CLOUDY    28  27  93 N10G16    29.39R FOG     WCI  19
GRAFTON        CLOUDY    37  32  81 W7        29.37S
GWINNER        MOSUNNY   37  36  93 W12       29.47S
LANGDON        CLOUDY    34  32  93 NW5       29.36R
ROLLA          CLOUDY    27  27 100 N9        29.39R WCI  17
WALHALLA         N/A     28  28 100 N16       29.40R WCI  17
$$

CITY           SKY/WX    TMP DP  RH WIND       PRES   REMARKS
ABERDEEN       CLOUDY    40  32  73 W15       29.52S
MOBRIDGE       CLOUDY    39  30  70 NW15      29.52R
BUFFALO          N/A     36  23  59 NW38G54   29.57R
RAPID CITY     SUNNY     41  19  41 NW37G53   29.69R
GLASGOW        MOSUNNY   24  15  68 NW31G39   29.77R WCI   7
SIDNEY         PTSUNNY   21  18  86 W25       29.69R WCI   4
WOLF POINT     CLOUDY    27  16  63 NW20G31   29.77R WCI  13
GLENDIVE       CLOUDY    25  19  80 W24G31    29.72R WCI   9
MILES CITY     PTSUNNY   36  24  62 NW24G33   29.77R
BAKER          CLOUDY    29  23  78 NW28G35   29.67R WCI  14
$$

CITY           SKY/WX    TMP DP  RH WIND       PRES   REMARKS
BILLINGS       MOSUNNY   34  19  54 W9        29.89R
GREAT FALLS    MOCLDY    30  21  69 SW12      29.89R
REGINA         SNOWSHWR  10   7  85 NW16G25   29.72R DRFTSNOWWCI  -7
ESTEVAN        LGT SNOW  16  10  79 NW21G30   29.59R DRFTSNOWWCI  -2
$$




USA.gov is the U.S. government's official web portal to all federal, state and local government web resources and services.